Location: Cedar Brake
(32.2526°N, 97.8459°W)
Time: 20:38:18
(UTC+00:00)

SL-08 R/B - Pass Details

Date: 22 April 2026
Orbit: 946 x 991 km, 83.0° (Epoch: 21 May)

Event Time Altitude Azimuth Distance (km) Brightness Sun altitude
Rises 10:27:53 0° 351° (N) 3,706 7.8 -17.8°
Reaches altitude 10° 10:30:25 10° 349° (NNW) 2,756 7.1 -17.3°
Maximum altitude 10:36:42 69° 267° (W) 1,056 4.5 -16.2°
Drops below altitude 10° 10:42:56 10° 185° (S) 2,736 6.6 -15.0°
Sets 10:45:27 0° 183° (S) 3,677 7.2 -14.5°
